TESS (43435 NORAD) Tracking and Keplerian Element Data

This shows tracking and keplerian element data for the satellite.

Feedback or suggestion? Click here.




ElementValue
Catalog43435
NameTESS
Epoch Orbit148
Epoch Day28.72959404
Epoch Year2025
RAAN53.7714
Inclination53.2893
Eccentricity0.3763341
Argument of Perigee112.3361
Mean Anonmoly355.8677
Mean Motion0.06955746
Decay Rate-1.059E-05
L11 43435U 18038A 25028.72959404 -.00001059 00000+0 00000+0 0 9990
L22 43435 53.2893 53.7714 3763341 112.3361 355.8677 0.06955746 1488



Live tracking and technical data element details for TESS (NORAD 43435). TESS can be tracked NOW for your location showing map with azimuth and elevation plus other details from your city location.







IsCatalogInMostPopularTable: catalog: 43435, numindb: 687
Update: records affected: 1



GetName: 43435 TESS

Hit Count: updated at: Sat, 17 May 2025 09:08:48 GMT